FW6754 Weather Reports


Display with metric or nautical units.
time (UTC)temp
F
wind
direction
speed
MPH
gust
MPH
rain 1hr
in
rain 24hr
in
rain mn
in
humidity
%
barometer
mb
20260505200411 54 0.0 0.0 0.00 0.00 0.00 10 1011.2
20260505195911 54 0.0 0.0 0.00 0.00 0.00 10 1011.2
20260505195411 54 0.0 0.0 0.00 0.00 0.00 10 1011.1
20260505194912 54 0.0 0.0 0.00 0.00 0.00 10 1011.1
20260505194412 54 0.0 0.0 0.00 0.00 0.00 10 1011.0
20260505193911 54 0.0 0.0 0.00 0.00 0.00 10 1011.0
20260505193411 54 0.0 0.0 0.00 0.00 0.00 10 1011.0
20260505192911 54 0.0 0.0 0.00 0.00 0.00 10 1010.8
20260505191912 54 0.0 0.0 0.00 0.00 0.00 10 1010.7
20260505191412 54 0.0 0.0 0.00 0.00 0.00 10 1010.6
20260505190912 54 0.0 0.0 0.00 0.00 0.00 10 1010.6
20260505190412 54 0.0 0.0 0.00 0.00 0.00 10 1010.5
20260505185912 55 0.0 0.0 0.00 0.00 0.00 10 1010.3
20260505185412 55 0.0 0.0 0.00 0.00 0.00 10 1010.3
20260505184912 56 0.0 0.0 0.00 0.00 0.00 10 1010.2
20260505183912 56 0.0 0.0 0.00 0.00 0.00 10 1010.1
20260505183412 57 0.0 0.0 0.00 0.00 0.00 10 1010.1
20260505182912 57 0.0 0.0 0.00 0.00 0.00 10 1009.9
20260505181912 58 0.0 0.0 0.00 0.00 0.00 10 1010.0
20260505181412 58 0.0 0.0 0.00 0.00 0.00 10 1009.9
20260505180913 59 0.0 0.0 0.00 0.00 0.00 10 1009.9
20260505180411 59 0.0 0.0 0.00 0.00 0.00 10 1009.8
20260505175412 59 0.0 0.0 0.00 0.00 0.00 10 1009.7
20260505174912 60 0.0 0.0 0.00 0.00 0.00 10 1009.7
20260505172912 67 0.0 0.0 0.00 0.00 0.00 10 1009.3
20260505172412 70 0.0 0.0 0.00 0.00 0.00 10 1009.1
20260505171911 72 0.0 0.0 0.00 0.00 0.00 10 1009.1
20260505170911 65 0.0 0.0 0.00 0.00 0.00 10 1009.3
20260505170411 66 0.0 0.0 0.00 0.00 0.00 10 1009.4
20260505165912 66 0.0 0.0 0.00 0.00 0.00 10 1009.4
20260505165412 64 0.0 0.0 0.00 0.00 0.00 10 1009.5
20260505164913 64 0.0 0.0 0.00 0.00 0.00 10 1009.5
20260505164412 66 0.0 0.0 0.00 0.00 0.00 10 1009.6
20260505163912 64 0.0 0.0 0.00 0.00 0.00 10 1009.6
20260505163412 66 0.0 0.0 0.00 0.00 0.00 10 1009.5
20260505162912 65 0.0 0.0 0.00 0.00 0.00 10 1009.5
20260505162413 63 0.0 0.0 0.00 0.00 0.00 10 1009.5
20260505161912 62 0.0 0.0 0.00 0.00 0.00 10 1009.6
20260505161412 64 0.0 0.0 0.00 0.00 0.00 10 1009.6
20260505160913 65 0.0 0.0 0.00 0.00 0.00 10 1009.5
20260505160412 65 0.0 0.0 0.00 0.00 0.00 10 1009.5
20260505152412 62 0.0 0.0 0.00 0.00 0.00 10 1009.7
20260505151912 64 0.0 0.0 0.00 0.00 0.00 10 1009.5
20260505151411 64 0.0 0.0 0.00 0.00 0.00 10 1009.5
20260505150912 64 0.0 0.0 0.00 0.00 0.00 10 1009.5
20260505150412 63 0.0 0.0 0.00 0.00 0.00 10 1009.5
20260505124912 61 0.0 0.0 0.00 0.00 0.00 10 1009.7
20260505124412 61 0.0 0.0 0.00 0.00 0.00 10 1009.7
20260505123912 63 0.0 0.0 0.00 0.00 0.00 10 1009.6
20260505123413 63 0.0 0.0 0.00 0.00 0.00 10 1009.6
20260505122912 66 0.0 0.0 0.00 0.00 0.00 10 1009.4
20260505122412 71 0.0 0.0 0.00 0.00 0.00 10 1009.1
20260505121911 68 0.0 0.0 0.00 0.00 0.00 10 1009.2
20260505121412 62 0.0 0.0 0.00 0.00 0.00 10 1009.6
20260505120912 60 0.0 0.0 0.00 0.00 0.00 10 1009.8
20260505120412 60 0.0 0.0 0.00 0.00 0.00 10 1009.8
20260505115912 63 0.0 0.0 0.00 0.00 0.00 10 1009.6
20260505115412 62 0.0 0.0 0.00 0.00 0.00 10 1009.7
20260505114412 62 0.0 0.0 0.00 0.00 0.00 10 1009.9
20260505113912 64 0.0 0.0 0.00 0.00 0.00 10 1009.6
20260505113412 65 0.0 0.0 0.00 0.00 0.00 10 1009.5
20260505112412 64 0.0 0.0 0.00 0.00 0.00 10 1009.6
20260505111413 63 0.0 0.0 0.00 0.00 0.00 10 1009.8
20260505110912 63 0.0 0.0 0.00 0.00 0.00 10 1009.8
20260505110412 63 0.0 0.0 0.00 0.00 0.00 10 1009.9
20260505101412 60 0.0 0.0 0.00 0.00 0.00 10 1010.0
20260505100911 58 0.0 0.0 0.00 0.00 0.00 10 1010.1
20260505100412 57 0.0 0.0 0.00 0.00 0.00 10 1010.0
20260505095912 57 0.0 0.0 0.00 0.00 0.00 10 1009.9
20260505095412 56 0.0 0.0 0.00 0.00 0.00 10 1009.9
20260505094911 56 0.0 0.0 0.00 0.00 0.00 10 1009.9
20260505094411 57 0.0 0.0 0.00 0.00 0.00 10 1009.8
20260505093912 57 0.0 0.0 0.00 0.00 0.00 10 1009.7
20260505093411 57 0.0 0.0 0.00 0.00 0.00 10 1009.6
20260505092912 57 0.0 0.0 0.00 0.00 0.00 10 1009.7
20260505092412 57 0.0 0.0 0.00 0.00 0.00 10 1009.6
20260505091911 57 0.0 0.0 0.00 0.00 0.00 10 1009.6
20260505091411 57 0.0 0.0 0.00 0.00 0.00 10 1009.6
20260505090413 57 0.0 0.0 0.00 0.00 0.00 10 1009.6
20260505084912 56 0.0 0.0 0.00 0.00 0.00 10 1009.6
20260505084412 56 0.0 0.0 0.00 0.00 0.00 10 1009.6
20260505083411 56 0.0 0.0 0.00 0.00 0.00 10 1009.5
20260505082411 56 0.0 0.0 0.00 0.00 0.00 10 1009.6
20260505081912 56 0.0 0.0 0.00 0.00 0.00 10 1009.6
20260505081413 56 0.0 0.0 0.00 0.00 0.00 10 1009.5
20260505080912 56 0.0 0.0 0.00 0.00 0.00 10 1009.5
20260505080412 56 0.0 0.0 0.00 0.00 0.00 10 1009.6
20260505075412 56 0.0 0.0 0.00 0.00 0.00 10 1009.7
20260505074912 56 0.0 0.0 0.00 0.00 0.00 10 1009.6
20260505073912 56 0.0 0.0 0.00 0.00 0.00 10 1009.7
20260505073412 55 0.0 0.0 0.00 0.00 0.00 10 1009.7
20260505072912 55 0.0 0.0 0.00 0.00 0.00 10 1009.8
20260505072411 55 0.0 0.0 0.00 0.00 0.00 10 1009.8
20260505071411 55 0.0 0.0 0.00 0.00 0.00 10 1009.8
20260505070911 55 0.0 0.0 0.00 0.00 0.00 10 1009.8
20260505065912 55 0.0 0.0 0.00 0.00 0.00 10 1009.8
20260505065413 55 0.0 0.0 0.00 0.00 0.00 10 1009.9
20260505064911 55 0.0 0.0 0.00 0.00 0.00 10 1009.9
20260505064412 55 0.0 0.0 0.00 0.00 0.00 10 1009.8
20260505063912 55 0.0 0.0 0.00 0.00 0.00 10 1009.8
20260505063412 55 0.0 0.0 0.00 0.00 0.00 10 1009.8
20260505062912 55 0.0 0.0 0.00 0.00 0.00 10 1009.9
20260505062412 55 0.0 0.0 0.00 0.00 0.00 10 1009.8
20260505061912 55 0.0 0.0 0.00 0.00 0.00 10 1009.9
20260505061411 55 0.0 0.0 0.00 0.00 0.00 10 1009.9
20260505060915 55 0.0 0.0 0.00 0.00 0.00 10 1009.9
20260505060413 55 0.0 0.0 0.00 0.00 0.00 10 1009.8
20260505055911 55 0.0 0.0 0.00 0.00 0.00 10 1009.8
20260505055411 55 0.0 0.0 0.00 0.00 0.00 10 1009.9
20260505054912 55 0.0 0.0 0.00 0.00 0.00 10 1009.8
20260505054412 55 0.0 0.0 0.00 0.00 0.00 10 1009.9
20260505053912 55 0.0 0.0 0.00 0.00 0.00 10 1010.0
20260505052911 55 0.0 0.0 0.00 0.00 0.00 10 1009.8
20260505052411 55 0.0 0.0 0.00 0.00 0.00 10 1009.8
20260505051911 54 0.0 0.0 0.00 0.00 0.00 10 1009.9
20260505051412 54 0.0 0.0 0.00 0.00 0.00 10 1009.9
20260505050912 54 0.0 0.0 0.00 0.00 0.00 10 1009.9
20260505050412 54 0.0 0.0 0.00 0.00 0.00 10 1009.8
20260505041411 55 0.0 0.0 0.00 0.00 0.00 10 1010.2
20260505040412 55 0.0 0.0 0.00 0.00 0.00 10 1010.1
20260505035911 55 0.0 0.0 0.00 0.00 0.00 10 1010.1
20260505035411 55 0.0 0.0 0.00 0.00 0.00 10 1010.2
20260505033912 55 0.0 0.0 0.00 0.00 0.00 10 1010.1
20260505032911 55 0.0 0.0 0.00 0.00 0.00 10 1010.3
20260505032413 55 0.0 0.0 0.00 0.00 0.00 10 1010.3
20260505031913 55 0.0 0.0 0.00 0.00 0.00 10 1010.3
20260505031412 55 0.0 0.0 0.00 0.00 0.00 10 1010.5
20260505030911 55 0.0 0.0 0.00 0.00 0.00 10 1010.4
20260505030411 55 0.0 0.0 0.00 0.00 0.00 10 1010.6
20260505025912 55 0.0 0.0 0.00 0.00 0.00 10 1010.7
20260505025412 55 0.0 0.0 0.00 0.00 0.00 10 1010.6
20260505024911 55 0.0 0.0 0.00 0.00 0.00 10 1010.7
20260505024411 55 0.0 0.0 0.00 0.00 0.00 10 1010.8
20260505023912 55 0.0 0.0 0.00 0.00 0.00 10 1010.7
20260505023411 55 0.0 0.0 0.00 0.00 0.00 10 1010.8
20260505022911 55 0.0 0.0 0.00 0.00 0.00 10 1011.0
20260505022411 55 0.0 0.0 0.00 0.00 0.00 10 1011.0
20260505021912 55 0.0 0.0 0.00 0.00 0.00 10 1011.0
20260505021412 55 0.0 0.0 0.00 0.00 0.00 10 1010.9
20260505020912 54 0.0 0.0 0.00 0.00 0.00 10 1011.0
20260505020413 54 0.0 0.0 0.00 0.00 0.00 10 1011.0
20260505015912 55 0.0 0.0 0.00 0.00 0.00 10 1011.1
20260505015411 54 0.0 0.0 0.00 0.00 0.00 10 1011.1
20260505014412 55 0.0 0.0 0.00 0.00 0.00 10 1011.2
20260505013912 55 0.0 0.0 0.00 0.00 0.00 10 1011.3
20260505013412 55 0.0 0.0 0.00 0.00 0.00 10 1011.2
20260505012912 55 0.0 0.0 0.00 0.00 0.00 10 1011.3
20260505012411 55 0.0 0.0 0.00 0.00 0.00 10 1011.4
20260505011411 55 0.0 0.0 0.00 0.00 0.00 10 1011.6
20260505010912 55 0.0 0.0 0.00 0.00 0.00 10 1011.6
20260505010412 55 0.0 0.0 0.00 0.00 0.00 10 1011.6
20260505005912 55 0.0 0.0 0.00 0.00 0.00 10 1011.5
20260505005412 55 0.0 0.0 0.00 0.00 0.00 10 1011.5
20260505004911 55 0.0 0.0 0.00 0.00 0.00 10 1011.4
20260505004412 55 0.0 0.0 0.00 0.00 0.00 10 1011.6
20260505003912 55 0.0 0.0 0.00 0.00 0.00 10 1011.5
20260505003412 55 0.0 0.0 0.00 0.00 0.00 10 1011.6
20260505002912 55 0.0 0.0 0.00 0.00 0.00 10 1011.6
20260505002411 55 0.0 0.0 0.00 0.00 0.00 10 1011.8
20260505001912 55 0.0 0.0 0.00 0.00 0.00 10 1011.8
20260505001411 55 0.0 0.0 0.00 0.00 0.00 10 1011.8
20260505000413 55 0.0 0.0 0.00 0.00 0.00 10 1012.0
20260504235912 55 0.0 0.0 0.00 0.00 0.00 10 1012.0
20260504235413 55 0.0 0.0 0.00 0.00 0.00 10 1012.1
20260504234911 55 0.0 0.0 0.00 0.00 0.00 10 1012.2
20260504234411 55 0.0 0.0 0.00 0.00 0.00 10 1012.3
20260504232911 55 0.0 0.0 0.00 0.00 0.00 10 1012.1
20260504232412 55 0.0 0.0 0.00 0.00 0.00 10 1012.2
20260504231912 55 0.0 0.0 0.00 0.00 0.00 10 1012.3
20260504231413 55 0.0 0.0 0.00 0.00 0.00 10 1012.4
20260504230912 55 0.0 0.0 0.00 0.00 0.00 10 1012.4
20260504230412 55 0.0 0.0 0.00 0.00 0.00 10 1012.4
20260504225912 55 0.0 0.0 0.00 0.00 0.00 10 1012.3
20260504224912 55 0.0 0.0 0.00 0.00 0.00 10 1012.2
20260504224412 55 0.0 0.0 0.00 0.00 0.00 10 1012.2
20260504223912 55 0.0 0.0 0.00 0.00 0.00 10 1012.2
20260504223412 55 0.0 0.0 0.00 0.00 0.00 10 1012.3
20260504222912 56 0.0 0.0 0.00 0.00 0.00 10 1012.4
20260504222412 55 0.0 0.0 0.00 0.00 0.00 10 1012.5
20260504221911 55 0.0 0.0 0.00 0.00 0.00 10 1012.6
20260504220912 55 0.0 0.0 0.00 0.00 0.00 10 1012.7
20260504220412 55 0.0 0.0 0.00 0.00 0.00 10 1012.8
20260504215912 55 0.0 0.0 0.00 0.00 0.00 10 1012.9
20260504215412 55 0.0 0.0 0.00 0.00 0.00 10 1013.0
20260504214912 55 0.0 0.0 0.00 0.00 0.00 10 1013.1
20260504214412 55 0.0 0.0 0.00 0.00 0.00 10 1013.2
20260504213911 55 0.0 0.0 0.00 0.00 0.00 10 1013.1
20260504213412 55 0.0 0.0 0.00 0.00 0.00 10 1013.1
20260504212912 55 0.0 0.0 0.00 0.00 0.00 10 1013.2
20260504212413 55 0.0 0.0 0.00 0.00 0.00 10 1013.1
20260504211912 55 0.0 0.0 0.00 0.00 0.00 10 1013.1
20260504211411 55 0.0 0.0 0.00 0.00 0.00 10 1013.3
20260504210412 55 0.0 0.0 0.00 0.00 0.00 10 1013.3
20260504205912 55 0.0 0.0 0.00 0.00 0.00 10 1013.3
20260504205412 55 0.0 0.0 0.00 0.00 0.00 10 1013.4
20260504204912 55 0.0 0.0 0.00 0.00 0.00 10 1013.4
20260504204412 55 0.0 0.0 0.00 0.00 0.00 10 1013.4
20260504203912 55 0.0 0.0 0.00 0.00 0.00 10 1013.5
20260504203411 55 0.0 0.0 0.00 0.00 0.00 10 1013.3
20260504202412 55 0.0 0.0 0.00 0.00 0.00 10 1013.3
20260504201912 55 0.0 0.0 0.00 0.00 0.00 10 1013.4
20260504201412 56 0.0 0.0 0.00 0.00 0.00 10 1013.4